Location: ??
(34.7707°N, 135.6540°E)
Time: 07:57:19
(UTC+00:00)

Meteor 1-31 Rocket - Pass Details

Date: 09 April 2020
Orbit: 520 x 548 km, 97.6° (Epoch: 25 May)

Event Time Altitude Azimuth Distance (km) Brightness Sun altitude
Rises 19:53:56 0° 5° (N) 2,718 6.6 -8.5°
Reaches altitude 10° 19:56:07 10° 359° (N) 1,818 5.7 -8.1°
Maximum altitude 19:59:53 47° 285° (WNW) 723 3.1 -7.3°
Drops below altitude 10° 20:03:37 10° 211° (SSW) 1,793 5.0 -6.6°
Sets 20:05:46 0° 206° (SSW) 2,675 5.9 -6.2°
